Weather History for Jonesville, VA

Change the Weather History Date:

Friday, May 17, 2013

  Actual Average (KLOZ) Record (KLOZ)
Temperature  
Mean Temperature 66 °F 65 °F  
Max Temperature 78 °F 77 °F 89 °F (1962)
Min Temperature 55 °F 54 °F 36 °F (1983)
Degree Days  
Heating Degree Days 0 3  
Month to date heating degree days 67  
Since 1 July heating degree days 4168  
Cooling Degree Days 2 3  
Month to date cooling degree days 33  
Year to date cooling degree days 59  
Growing Degree Days 16 (Base 50)    
Moisture  
Dew Point 60 °F    
Average Humidity 83    
Maximum Humidity 100    
Minimum Humidity 51    
Precipitation  
Precipitation 0.00 in 0.17 in 1.89 in (1963)
Sea Level Pressure  
Sea Level Pressure 30.10 in    
Wind  
Wind Speed 0 mph (North)    
Max Wind Speed 0 mph    
Max Gust Speed -    
Visibility 8 miles    
Events      
T = Trace of Precipitation, MM = Missing Value Source: NWS Daily Summary

Daily Weather History Graph

Daily Weather History Graph

Search for Another Location

Airport:

Trip Planner

Search our weather history database for the weather conditions in past years. The results will help you decide how hot, cold, wet, or windy it might be!

Date:

Astronomy

May. 17, 2013 Rise Set
Actual Time 6:23 AM EDT 8:35 PM EDT
Civil Twilight 5:54 AM EDT 9:04 PM EDT
Nautical Twilight 5:19 AM EDT 9:39 PM EDT
Astronomical Twilight 4:40 AM EDT 10:18 PM EDT
Moon 12:50 PM EDT (5/17) 1:31 AM EDT (5/17)
Length of Visible Light 15h 09m
Length of Day
14h 11m
Waxing Crescent, 45% of the Moon is Illuminated
May 17
Waxing Crescent
May 18
First Quarter
May 25
Full
May 31
Last Quarter
Jun 8
New

Hourly Weather History & Observations

Time (EDT) Temp. Dew Point Humidity Pressure Visibility Wind Dir Wind Speed Gust Speed Precip Events Conditions
12:15 AM 57.2 °F 57.2 °F 100% 30.08 in 4.0 mi Calm Calm - N/A   Mist
12:35 AM 57.2 °F 57.2 °F 100% 30.08 in 1.0 mi Calm Calm - N/A   Mist
12:55 AM 57.2 °F 57.2 °F 100% 30.08 in 6.0 mi Calm Calm - N/A   Mist
1:15 AM 57.2 °F 57.2 °F 100% 30.08 in 2.0 mi Calm Calm - N/A   Mist
1:35 AM 57.2 °F 57.2 °F 100% 30.08 in 1.8 mi Calm Calm - N/A   Mist
1:55 AM 57.2 °F 57.2 °F 100% 30.08 in 2.5 mi Calm Calm - N/A   Mist
2:15 AM 57.2 °F 57.2 °F 100% 30.08 in 5.0 mi Calm Calm - N/A   Mist
2:35 AM 55.4 °F 55.4 °F 100% 30.08 in 5.0 mi Calm Calm - N/A   Mist
2:55 AM 55.4 °F 55.4 °F 100% 30.08 in 4.0 mi Calm Calm - N/A   Mist
3:15 AM 55.4 °F 55.4 °F 100% 30.09 in 5.0 mi Calm Calm - N/A   Mist
3:35 AM 55.4 °F 55.4 °F 100% 30.09 in 1.0 mi Calm Calm - N/A   Mist
3:55 AM 55.4 °F 55.4 °F 100% 30.09 in 1.8 mi Calm Calm - N/A   Mist
4:15 AM 55.4 °F 55.4 °F 100% 30.09 in 5.0 mi Calm Calm - N/A   Mist
4:35 AM 55.4 °F 55.4 °F 100% 30.10 in 4.0 mi Calm Calm - N/A   Mist
4:55 AM 55.4 °F 55.4 °F 100% 30.10 in 5.0 mi Calm Calm - N/A   Mist
5:15 AM 55.4 °F 55.4 °F 100% 30.10 in 5.0 mi Calm Calm - N/A   Mist
5:35 AM 55.4 °F 55.4 °F 100% 30.11 in 7.0 mi Calm Calm - N/A   Unknown
5:55 AM 55.4 °F 55.4 °F 100% 30.11 in 5.0 mi Calm Calm - N/A   Mist
6:15 AM 55.4 °F 55.4 °F 100% 30.12 in 3.0 mi Calm Calm - N/A   Mist
6:35 AM 55.4 °F 55.4 °F 100% 30.12 in 3.0 mi Calm Calm - N/A   Mostly Cloudy
6:55 AM 55.4 °F 55.4 °F 100% 30.13 in 5.0 mi Calm Calm - N/A   Mostly Cloudy
7:15 AM 55.4 °F 55.4 °F 100% 30.13 in 5.0 mi Calm Calm - N/A   Mostly Cloudy
7:35 AM 57.2 °F 57.2 °F 100% 30.14 in 3.0 mi Calm Calm - N/A   Scattered Clouds
7:55 AM 57.2 °F 57.2 °F 100% 30.14 in 5.0 mi Calm Calm - N/A   Partly Cloudy
8:15 AM 59.0 °F 59.0 °F 100% 30.14 in 7.0 mi Calm Calm - N/A   Mostly Cloudy
8:35 AM 60.8 °F 59.0 °F 94% 30.14 in 10.0 mi Calm Calm - N/A   Scattered Clouds
8:55 AM 62.6 °F 59.0 °F 88% 30.14 in 10.0 mi Calm Calm - N/A   Clear
9:15 AM 62.6 °F 62.6 °F 100% 30.14 in 10.0 mi Calm Calm - N/A   Clear
9:35 AM 64.4 °F 62.6 °F 94% 30.14 in 9.0 mi Calm Calm - N/A   Clear
9:55 AM 64.4 °F 62.6 °F 94% 30.15 in 9.0 mi Calm Calm - N/A   Clear
10:15 AM 64.4 °F 62.6 °F 94% 30.14 in 10.0 mi Calm Calm - N/A   Clear
10:35 AM 68.0 °F 64.4 °F 88% 30.14 in 9.0 mi Calm Calm - N/A   Clear
10:55 AM 69.8 °F 64.4 °F 83% 30.14 in 10.0 mi Calm Calm - N/A   Clear
11:15 AM 69.8 °F 62.6 °F 78% 30.15 in 10.0 mi Calm Calm - N/A   Clear
11:35 AM 71.6 °F 64.4 °F 78% 30.15 in 10.0 mi Calm Calm - N/A   Clear
11:55 AM 73.4 °F 64.4 °F 73% 30.15 in 3.0 mi Calm Calm - N/A   Haze
12:15 PM 73.4 °F 62.6 °F 69% 30.14 in 10.0 mi Calm Calm - N/A   Clear
12:35 PM 75.2 °F 62.6 °F 65% 30.14 in 9.0 mi Calm Calm - N/A   Clear
12:55 PM 75.2 °F 62.6 °F 65% 30.13 in 10.0 mi Calm Calm - N/A   Clear
1:15 PM 75.2 °F 59.0 °F 57% 30.13 in 10.0 mi Calm Calm - N/A   Clear
1:35 PM 75.2 °F 60.8 °F 61% 30.13 in 10.0 mi Calm Calm - N/A   Clear
1:55 PM 75.2 °F 60.8 °F 61% 30.12 in 10.0 mi Calm Calm - N/A   Clear
2:15 PM 77.0 °F 62.6 °F 61% 30.12 in 10.0 mi Calm Calm - N/A   Clear
2:35 PM 77.0 °F 59.0 °F 54% 30.11 in 10.0 mi Calm Calm - N/A   Scattered Clouds
2:55 PM 77.0 °F 60.8 °F 57% 30.11 in 10.0 mi Calm Calm - N/A   Scattered Clouds
3:15 PM 78.8 °F 59.0 °F 51% 30.10 in 10.0 mi Calm Calm - N/A   Mostly Cloudy
3:55 PM 78.8 °F 59.0 °F 51% 30.09 in 10.0 mi Calm Calm - N/A   Partly Cloudy
4:15 PM 78.8 °F 59.0 °F 51% 30.08 in 10.0 mi Calm Calm - N/A   Clear
4:35 PM 78.8 °F 59.0 °F 51% 30.08 in 10.0 mi Calm Calm - N/A   Clear
4:55 PM 77.0 °F 59.0 °F 54% 30.07 in 10.0 mi Calm Calm - N/A   Clear
5:15 PM 78.8 °F 59.0 °F 51% 30.07 in 10.0 mi Calm Calm - N/A   Clear
5:35 PM 77.0 °F 59.0 °F 54% 30.07 in 10.0 mi Calm Calm - N/A   Clear
5:55 PM 77.0 °F 62.6 °F 61% 30.07 in 10.0 mi Calm Calm - N/A   Clear
6:15 PM 77.0 °F 62.6 °F 61% 30.07 in 10.0 mi Calm Calm - N/A   Clear
6:35 PM 75.2 °F 62.6 °F 65% 30.06 in 10.0 mi Calm Calm - N/A   Clear
6:55 PM 75.2 °F 62.6 °F 65% 30.06 in 10.0 mi Calm Calm - N/A   Clear
7:15 PM 75.2 °F 62.6 °F 65% 30.07 in 10.0 mi Calm Calm - N/A   Partly Cloudy
7:35 PM 75.2 °F 60.8 °F 61% 30.07 in 10.0 mi Calm Calm - N/A   Partly Cloudy
7:55 PM 73.4 °F 66.2 °F 78% 30.08 in 10.0 mi Calm Calm - N/A   Scattered Clouds
8:15 PM 71.6 °F 66.2 °F 83% 30.07 in 10.0 mi Calm Calm - N/A   Partly Cloudy
8:35 PM 69.8 °F 66.2 °F 88% 30.07 in 10.0 mi Calm Calm - N/A   Clear
8:55 PM 68.0 °F 66.2 °F 94% 30.08 in 10.0 mi Calm Calm - N/A   Unknown
9:15 PM 68.0 °F 66.2 °F 94% 30.08 in 10.0 mi Calm Calm - N/A   Unknown
9:35 PM 68.0 °F 66.2 °F 94% 30.09 in 10.0 mi Calm Calm - N/A   Unknown
9:55 PM 68.0 °F 66.2 °F 94% 30.09 in 10.0 mi Calm Calm - N/A   Unknown
10:15 PM 66.2 °F 64.4 °F 94% 30.10 in 10.0 mi Calm Calm - N/A   Unknown
10:35 PM 68.0 °F 64.4 °F 88% 30.10 in 10.0 mi Calm Calm - N/A   Unknown
10:55 PM 68.0 °F 62.6 °F 83% 30.11 in 10.0 mi Calm Calm - N/A   Unknown
11:15 PM 68.0 °F 60.8 °F 78% 30.11 in 10.0 mi Calm Calm - N/A   Unknown
11:35 PM 68.0 °F 60.8 °F 78% 30.11 in 10.0 mi Calm Calm - N/A   Mostly Cloudy
11:55 PM 66.2 °F 62.6 °F 88% 30.10 in 10.0 mi Calm Calm - N/A   Mostly Cloudy